軌道要素
Epoch 2024 Oct. 17.0 TT = JDT 2460600.5
T 2025 Feb. 2.66067 TT Rudenko
q 5.1907702 (2000.0) P Q
z -0.0007813 Peri. 265.53196 -0.75301302 -0.39300332
+/-0.0000014 Node 109.45990 -0.09794408 +0.86005442
e 1.0040556 Incl. 145.96329 -0.65067530 +0.32535333
>From 325 observations 2023 Mar. 28-2024 Aug. 31, mean residual 0".5.
|